Location: Moscow
(55.7500°N, 37.5830°E)
Time: 22:36:25
(UTC+03:00)

A-11 Canister half - Pass Details

Date: 02 December 2021
Orbit: 1516 x 1684 km, 47.2° (Epoch: 16 January)

Event Time Altitude Azimuth Distance (km) Brightness Sun altitude
Rises 13:10:15 0° 278° (W) 4,884 11.7 11.5°
Reaches altitude 10° 13:13:37 10° 271° (W) 3,913 11.3 11.4°
Maximum altitude 13:22:36 39° 208° (SSW) 2,344 11.2 11.1°
Drops below altitude 10° 13:31:39 10° 144° (SE) 3,941 11.8 10.7°
Sets 13:35:05 0° 137° (SE) 4,922 12.1 10.6°
